RH
74 75 52 27 25 41 55 73 83 92 85 96 96 96 96 92 84 83 70 63 49 32 26 25 27 26 25 24 21 20 20 31 53 57 61 69 72 69 62 64 68 57 56
67 70 58 71 54 61 82 75 93 95 95 93 97 96 98 96 95 89 82 69 52 31 30 33 30 28 27 26 19 18 20 21 28 47 48 44 66 70 38 30 39 49 51
64 64 68 90 79 83 90 66 86 96 97 96 97 97 97 92 90 90 76 60 44 40 36 34 35 32 28 26 29 29 22 20 21 25 40 44 47 59 33 43 40 34 32
58 60 81 80 96 96 82 96 92 97 96 97 95 96 96 93 85 80 66 55 47 40 38 36 36 42 45 44 42 39 35 31 24 21 22 22 22 26 27 28 27 25 27
55 69 70 95 94 97 96 96 97 96 96 97 97 97 95 84 72 64 56 52 46 42 42 42 42 42 37 32 30 28 27 31 35 33 29 27 25 24 23 22 23 24 24
87 98 90 96 98 96 97 97 95 97 97 97 97 96 94 78 69 64 58 53 49 44 39 33 28 23 19 14 10 8 8 8 8 8 8 9 10 16 22 25 25 25 24
95 97 97 96 97 95 95 93 94 79 86 94 94 89 75 66 57 54 47 37 27 19 13 10 8 7 6 6 4 3 2 2 2 2 2 2 2 2 2 2 2 2 3
82 94 96 93 97 85 91 90 61 80 73 50 42 37 40 35 28 20 15 10 9 7 5 3 2 2 2 2 2 2 2 3 4 4 4 4 4 4 4 4 3 3 4
93 98 97 95 94 96 94 61 23 23 25 20 18 10 9 10 10 10 9 6 3 2 2 2 2 2 2 2 3 4 5 5 4 4 4 5 5 5 5 4 4 4 4
100 97 97 95 95 96 92 26 13 12 11 12 13 13 12 10 6 3 3 2 2 3 4 5 6 6 6 5 5 5 5 7 7 7 6 6 5 5 5 5 5 5 5
83 77 46 51 52 48 42 23 20 19 19 17 11 5 3 2 2 2 3 3 4 6 7 7 7 6 5 5 5 5 5 7 8 7 7 7 5 5 5 4 4 4 3
18 20 26 27 28 29 27 23 19 15 10 4 3 2 2 3 4 5 6 6 8 7 7 6 6 6 7 7 7 7 7 6 6 7 7 7 7 6 5 4 4 3 3
8 8 9 9 9 8 7 6 4 3 2 2 2 3 4 6 7 8 9 8 8 7 6 6 7 9 9 9 9 8 8 8 8 8 8 8 7 7 5 4 4 3 3
4 4 4 3 3 3 3 3 2 2 2 2 4 6 8 9 9 9 9 9 9 8 7 8 10 9 8 8 7 8 8 8 8 8 8 8 6 6 6 5 4 4 4
3 3 2 2 2 2 2 2 2 2 3 5 7 8 8 9 9 9 9 10 10 10 10 8 9 9 9 8 8 7 7 7 8 8 9 9 8 6 5 6 5 5 5
3 3 3 3 3 3 4 4 4 5 6 7 8 8 9 12 14 14 14 13 12 11 11 11 9 8 9 8 7 8 8 8 9 10 10 10 9 8 8 6 6 7 7
4 3 3 3 4 4 4 5 5 6 6 6 6 7 11 15 16 15 14 11 10 9 8 8 8 8 8 10 12 12 13 12 12 11 12 11 11 10 8 9 9 7 7
8 8 7 7 5 4 3 4 4 4 5 5 5 7 9 15 17 18 18 17 16 15 15 16 17 16 17 17 16 16 16 17 18 17 16 15 13 12 10 10 10 9 8
2 3 3 3 3 4 7 10 6 4 4 4 4 6 8 13 16 17 18 18 17 19 21 21 20 20 20 20 20 20 22 22 22 20 19 17 16 14 13 12 12 11 10
3 3 3 3 3 4 4 4 6 11 9 6 5 6 8 13 18 19 19 20 21 20 21 24 24 23 23 25 24 23 23 24 23 21 21 20 19 17 16 14 14 13 13
4 4 4 4 4 5 6 6 6 4 7 12 10 8 8 11 16 19 21 21 19 18 21 25 26 26 27 28 29 28 27 26 26 25 24 23 23 23 22 20 18 19 20
4 4 5 6 6 6 8 9 9 8 6 4 10 13 12 12 14 16 17 17 17 18 25 28 28 29 28 30 31 32 30 30 29 29 30 29 29 29 28 26 25 24 24
6 5 5 6 7 7 8 9 10 12 11 8 5 6 12 15 16 16 16 14 13 22 30 32 32 32 32 36 38 39 41 44 45 48 48 48 45 42 38 38 38 37 36
8 6 5 5 6 7 8 9 10 13 14 12 10 7 9 12 13 13 12 13 22 34 37 40 38 38 40 42 46 51 53 52 50 47 61 60 54 57 55 53 49 47 42
19 15 9 7 6 7 10 11 11 13 15 14 13 9 8 10 12 14 16 24 38 42 44 44 44 46 47 51 54 57 56 56 55 49 43 65 61 58 55 54 52 46 40
20 22 22 18 15 13 12 14 15 17 18 18 15 12 10 13 16 20 25 40 45 49 49 49 51 55 60 62 64 64 64 62 61 53 45 43 41 54 58 55 48 43 36
Wind_Speed
21 22 22 22 25 22 16 13 19 18 18 20 18 26 17 20 19 18 16 14 12 12 10 9 7 5 3 3 3 0 2 4 5 5 5 5 3 3 3 2 1 2 2
18 22 22 23 25 21 11 14 21 18 18 25 30 22 21 23 19 15 14 13 13 12 11 10 7 6 5 4 3 2 2 3 4 4 4 4 4 5 4 3 3 3 4
18 26 22 24 20 20 7 23 20 25 22 20 18 21 21 20 15 14 14 13 13 13 13 11 10 9 7 6 4 3 3 3 3 3 3 2 1 3 4 3 4 3 3
21 26 29 24 23 20 23 17 16 25 25 18 15 17 19 15 17 16 16 15 14 12 12 11 10 9 8 7 7 7 6 5 4 3 3 1 1 1 1 2 2 2 2
21 29 32 30 30 26 27 18 27 27 20 19 18 18 21 19 18 17 15 15 14 13 13 12 11 10 9 8 8 7 7 6 5 5 5 4 3 2 1 1 1 1 1
19 25 29 22 19 25 33 20 23 21 21 25 21 19 17 16 15 14 13 14 13 13 13 13 12 11 10 9 8 7 7 7 7 6 5 5 5 5 4 3 2 3 3
18 22 24 18 17 19 17 24 16 14 10 11 13 15 16 16 15 15 15 15 15 15 15 13 11 11 11 10 9 8 7 7 6 5 5 5 5 4 3 3 2 1 0
16 15 16 20 22 16 19 14 12 13 12 13 16 17 16 17 16 16 16 15 14 14 13 12 11 11 11 10 9 9 8 8 7 6 6 4 4 3 2 2 3 4 4
12 10 18 16 22 21 15 14 17 17 18 17 16 15 16 16 16 15 15 15 16 16 14 12 11 10 10 11 10 10 10 9 7 6 4 4 4 4 5 6 7 7 8
18 14 11 7 14 16 13 17 16 16 14 15 16 16 17 16 16 16 16 16 16 14 12 12 11 11 12 13 13 12 12 9 8 8 7 8 9 10 11 12 12 11 10
4 5 9 10 11 14 17 16 16 16 16 17 16 16 17 17 16 16 16 16 16 15 14 15 15 16 16 15 15 14 14 14 12 13 14 15 16 15 15 15 15 13 9
12 12 13 13 13 15 17 17 16 17 18 18 17 17 16 16 17 18 18 18 19 18 19 19 19 17 16 15 16 17 17 17 19 20 20 21 20 18 16 16 15 13 13
15 16 16 15 15 16 17 17 17 18 18 18 18 18 18 19 18 19 21 21 21 22 23 22 21 20 19 18 19 20 20 21 22 23 22 24 25 24 22 20 18 18 18
16 16 17 17 18 18 18 19 20 21 20 20 21 21 21 22 21 22 23 23 25 26 27 26 26 23 22 22 21 23 23 25 26 27 26 28 28 28 27 25 25 25 24
17 16 16 17 17 18 20 21 22 23 23 23 23 24 25 25 26 27 27 27 29 29 31 30 31 30 30 30 29 28 29 30 31 31 31 32 32 31 31 30 31 31 32
19 19 19 20 20 22 21 22 23 25 26 26 27 27 28 29 29 28 28 29 29 31 32 32 33 35 35 34 34 34 34 35 35 35 35 36 36 37 37 37 37 37 36
23 22 23 24 25 25 26 27 29 29 29 30 30 30 32 32 32 31 30 30 30 31 32 33 33 35 36 36 35 37 38 38 39 40 41 41 40 40 41 43 44 44 44
26 27 28 29 30 30 32 34 34 35 36 36 36 36 38 38 36 35 33 33 34 36 36 36 35 38 38 39 39 40 42 43 43 44 44 44 44 44 44 46 47 48 49
31 30 30 31 31 32 33 35 38 38 39 39 40 41 41 40 40 40 39 39 39 40 39 39 40 40 41 42 44 45 45 45 45 46 47 48 48 47 48 50 51 52 54
36 35 35 34 34 34 35 37 40 41 42 42 43 44 44 44 43 42 43 42 43 43 42 42 42 42 43 46 47 48 48 48 48 49 49 49 50 50 51 53 55 57 58
42 41 40 40 39 38 38 39 42 44 46 45 45 46 46 47 47 47 47 47 47 45 45 45 45 46 47 47 48 49 49 49 49 49 50 51 52 53 54 56 58 60 62
49 49 47 46 44 43 42 42 43 46 47 47 48 48 48 49 50 51 50 50 49 47 47 47 48 48 48 47 47 48 49 49 50 51 53 55 57 58 60 62 64 66 67
55 54 53 51 50 48 47 45 45 46 47 49 52 52 51 51 53 53 52 52 51 50 50 50 50 50 49 49 49 49 50 51 53 54 57 59 61 63 64 66 67 68 69
59 60 59 58 56 54 52 50 49 49 50 51 50 51 52 53 53 53 53 53 53 53 53 53 52 52 51 51 52 53 54 56 57 57 57 60 62 64 66 67 68 70 72
60 60 61 60 59 57 55 55 54 53 53 53 53 53 53 55 55 54 54 54 55 55 55 55 54 53 54 55 57 58 59 61 62 62 61 60 62 65 67 67 67 71 74
55 57 58 59 59 58 58 58 57 56 56 56 55 55 56 55 56 56 56 57 57 57 57 56 56 55 57 60 62 63 63 64 63 64 64 66 66 65 65 67 68 69 70
Wind_Direction
240 237 230 225 230 233 239 256 264 249 245 257 238 224 233 207 202 199 203 208 212 215 212 210 209 217 230 263 275 161 106 123 152 152 152 144 145 137 83 48 305 271 290
243 232 226 217 223 223 229 254 239 243 245 257 247 212 228 220 200 194 208 211 210 216 220 221 226 235 240 249 239 179 170 141 143 164 162 140 140 141 127 108 58 41 30
237 231 219 214 213 218 226 236 221 233 229 180 180 199 201 191 190 200 206 208 212 215 223 221 226 229 227 222 209 200 188 184 164 138 162 187 194 127 127 114 94 65 66
232 227 218 210 180 202 213 178 216 230 187 178 208 202 191 179 183 187 195 206 217 221 229 236 233 228 215 217 220 219 215 205 184 171 173 177 106 72 93 68 77 57 30
247 231 214 185 190 203 187 178 199 195 217 225 195 198 186 177 185 193 199 209 216 221 226 229 232 235 232 221 220 220 222 219 211 201 202 204 197 209 244 281 289 300 338
198 198 193 175 194 212 213 185 182 181 178 184 183 186 178 189 193 200 206 214 218 223 227 226 227 230 232 228 223 218 217 205 209 199 199 196 191 188 198 217 243 269 286
205 184 190 173 166 190 185 182 173 170 189 176 156 179 191 199 203 206 213 220 225 227 227 227 228 229 226 217 200 185 182 179 177 183 179 173 174 170 176 168 171 203 245
242 232 219 175 178 192 207 183 184 184 184 196 195 197 200 206 208 216 213 219 222 223 218 211 206 205 204 194 196 201 207 215 215 220 227 230 236 226 229 276 318 320 308
223 228 211 204 192 181 180 192 204 202 200 202 205 212 210 209 213 216 214 211 211 212 214 217 220 224 226 227 225 229 228 228 228 235 226 235 256 263 267 276 275 276 283
216 213 232 229 219 193 188 217 207 208 212 209 210 213 217 214 208 207 206 211 216 226 231 241 243 245 246 247 246 234 215 215 229 233 248 263 258 256 262 262 261 266 268
231 221 235 225 218 216 218 219 217 215 217 219 215 213 211 209 208 214 219 224 230 234 238 244 247 248 250 250 248 234 225 229 244 249 258 264 267 268 272 270 266 265 264
235 239 237 231 229 230 227 223 219 220 216 212 208 210 216 218 221 225 232 235 236 239 243 243 246 247 245 243 245 248 247 251 258 269 275 278 279 279 280 279 261 247 256
230 225 234 231 231 231 228 222 217 213 213 215 214 219 225 232 237 241 242 243 247 248 245 246 243 239 244 250 255 262 266 270 273 276 282 283 279 274 269 264 256 255 259
240 236 231 232 229 231 227 220 215 218 221 222 224 228 235 242 244 247 250 249 249 250 249 247 245 246 252 258 262 267 272 276 278 279 280 279 279 273 268 263 258 258 260
250 247 243 240 237 234 228 225 226 229 230 230 233 236 241 246 248 247 248 251 254 255 256 250 251 252 256 260 267 271 274 275 274 277 278 280 282 284 278 270 268 267 266
250 247 246 246 242 242 241 241 241 239 239 241 242 244 247 249 252 256 257 259 261 262 261 261 257 257 259 263 268 274 275 276 276 277 277 278 280 284 285 281 275 275 275
248 250 252 252 250 250 250 247 246 247 249 251 252 253 254 254 255 256 258 257 259 261 261 260 259 262 264 268 270 272 275 276 277 277 278 279 279 281 283 281 282 279 279
246 246 248 249 250 250 251 253 253 253 253 252 252 253 254 253 253 255 257 259 260 261 260 260 262 263 266 268 270 271 273 274 275 276 278 278 278 279 280 281 282 282 280
244 246 247 251 255 255 254 252 251 251 251 251 252 253 253 254 255 257 259 260 261 261 260 262 264 266 268 270 271 271 273 274 275 276 276 276 276 277 278 278 279 278 278
253 251 250 251 254 257 258 257 257 255 254 252 252 252 254 255 255 256 257 259 261 262 264 265 266 268 270 272 273 274 275 276 276 275 274 275 276 276 277 278 279 280 279
260 259 257 255 255 257 260 259 258 257 255 254 254 253 253 253 255 257 258 261 262 263 264 266 268 269 271 272 273 273 273 274 274 274 274 275 276 277 277 277 277 277 277
259 260 261 260 258 258 259 260 259 258 258 257 255 254 254 255 256 258 260 262 263 264 265 267 268 269 270 270 270 272 274 275 276 277 277 278 278 278 277 277 276 276 276
256 258 261 261 259 258 259 261 262 260 258 257 257 255 255 255 256 258 260 262 263 263 264 266 268 268 270 271 271 273 273 275 276 278 280 281 281 282 282 282 281 281 281
254 254 255 257 259 259 259 260 261 261 260 259 259 259 259 258 258 259 260 261 261 263 265 266 267 268 270 272 274 276 277 278 277 276 277 279 280 281 282 283 283 283 284
254 254 255 256 258 261 263 264 264 262 261 260 259 258 258 259 261 261 260 260 262 265 266 267 268 270 272 273 275 278 280 282 283 282 280 282 283 284 284 283 284 285 286
255 252 252 255 257 259 260 261 261 259 259 259 259 258 257 258 259 260 260 261 264 266 268 269 270 272 273 275 278 281 284 286 286 286 285 285 285 286 287 288 288 287 287